Regional Weather Roundup
Issued by NWS

Home | Current Version | Previous Version | Graphics & Text | Print | Product List | Glossary On
Versions: 1 2 3 4 5 6 7 8 9 10 11 12 13 14 15 16 17 18 19 20 21 22 23 24 25 26 27 28 29 30 31 32 33 34 35 36 37 38 39 40 41 42 43 44 45 46 47 48 49 50
000
ASUS45 KTFX 310004
RWRMT
MONTANA HOURLY WEATHER ROUNDUP
NATIONAL WEATHER SERVICE GREAT FALLS MT
504 PM MST FRI JAN 30 2015

NOTE: "FAIR" INDICATES FEW OR NO CLOUDS BELOW 12000 FEET WITH NO
SIGNIFICANT WEATHER AND/OR OBSTRUCTIONS TO VISIBILITY.

* THESE STATIONS ARE NOT UNDER NWS QUALITY CONTROL. THEY DO NOT
   REPORT WEATHER SUCH AS PRECIPITATION OR FOG.

MTZ001>007-043-310100-
WEST OF THE DIVIDE
CITY           SKY/WX    TMP DP  RH WIND       PRES   REMARKS
KALISPELL      FOG       25  25 100 S5        30.24F VSB M1/4 WCI  19
MISSOULA       FOG       34  25  70 SW3       30.21F
BUTTE          CLEAR     36  21  54 NW6       30.15S WCI  31
MULLAN PASS    CLEAR     28  21  75 NW5       30.15F WCI  22
* ANACONDA     CLEAR     39  18  43 N3         N/A
* ESSEX        N/A       30  21  69 W1         N/A
* LINCOLN      N/A       40  19  43 S7G13      N/A   WCI  35
* LOOKOUT PASS N/A       35  25  67 N8         N/A   WCI  28
* POLSON       N/A       27  26  96 S1         N/A
* RONAN APT    CLEAR     25  25 100 N/A        N/A
* SEELEY LAKE  N/A       43  19  38 NW2        N/A
* THOMP F APT  CLEAR     35  11  37 NW9G21     N/A   WCI  28
$$

MTZ008-052>055-310100-
SOUTHWEST MONTANA
CITY           SKY/WX    TMP DP  RH WIND       PRES   REMARKS
BOZEMAN        PTCLDY    37  25  62 E5        30.15F WCI  33
DILLON         PTCLDY    41  14  33 CALM      30.13S
* W YELLOWSTON CLOUDY    29  14  53 N2         N/A
* THREE FORKS  CLEAR     45  25  45 N/A        N/A
* BOULDER HILL N/A       36  16  44 SW4        N/A
* MONIDA PASS  N/A       16  13  88 W4         N/A
* RAYNOLDS PAS N/A       28 -14  15 NE5        N/A   WCI  22
* WHITEHALL    N/A       47  17  30 W2G7       N/A
* WISE RIVER   N/A       33  15  47 W8G13      N/A   WCI  26
$$

MTZ009>010-012-014-046-048-049-054-310100-
EAST SLOPES AND CENTRAL MONTANA
CITY           SKY/WX    TMP DP  RH WIND       PRES   REMARKS
CUT BANK       CLEAR     43  18  37 SE7       30.06F
GREAT FALLS    CLEAR     41  19  41 S7        30.08F
HELENA         CLEAR     43  25  49 CALM      30.13F
MALMSTROM AFB  CLEAR     43  18  37 SW7       30.09F
* DEARBORN     N/A       45  19  35 N/A        N/A
* EAST GLACIER N/A       40  14  35 W20G30     N/A   WCI  30
* MONARCH      N/A       43  11  27 N4         N/A
* PENDROY      N/A       47  12  24 SE5        N/A
* ROGERS PASS  N/A       34  15  46 SE7G12     N/A   WCI  28
* SWEET GRASS  N/A       43  24  47 S6         N/A
$$

MTZ011-013-016-021-035-040-045-047-050-051-310100-
NORTH CENTRAL MONTANA
CITY           SKY/WX    TMP DP  RH WIND       PRES   REMARKS
HAVRE          PTCLDY    37  27  67 E9        30.11F WCI  30
LEWISTOWN      CLEAR     41  21  45 E7        30.10F
* N BAR RANCH  CLEAR     41  12  30 VRB5      30.12F
* CHESTER      N/A       44  25  47 S2         N/A
* DENTON       N/A       44  12  27 E3         N/A
* GEYSER       N/A       44  13  28 E6         N/A
* JUDITH GAP   N/A       43   7  22 SE9        N/A
* LOMA         N/A       43  26  51 NE6        N/A
$$

MTZ017>020-022>027-061-062-310100-
NORTHEAST MONTANA
CITY           SKY/WX    TMP DP  RH WIND       PRES   REMARKS
GLASGOW        PTCLDY    34  28  79 NE7       30.17F WCI  28
GLENDIVE       CLEAR     39  25  57 NW6       30.18S WCI  35
JORDAN         CLEAR     43  27  53 E3        30.15F
SIDNEY         CLEAR     34  25  70 CALM      30.20F
WOLF POINT     PTCLDY    39  30  70 CALM      30.19S
* BEAVER HILL  N/A       38  25  60 VRB7       N/A   WCI  33
* CIRCLE       N/A       43  32  65 N/A        N/A
* LINDSAY DVD  N/A       37  25  62 NW4        N/A
* NAVAJO       N/A       30  26  85 N11        N/A   WCI  21
* SACO         N/A       36  30  79 NE6        N/A   WCI  31
$$

MTZ028>042-056>058-310100-
SOUTHCENTRAL AND SOUTHEAST MONTANA
CITY           SKY/WX    TMP DP  RH WIND       PRES   REMARKS
BAKER          CLEAR     37  27  67 NW5       30.15F WCI  33
BILLINGS       PTCLDY    46  19  34 S5        30.13S
LIVINGSTON     PTCLDY    39  18  43 W7        30.11F WCI  34
MILES CITY     CLEAR     43  27  53 CALM      30.15F
* LAUREL APT   PTCLDY    45  19  35 N/A        N/A
* ROUNDUP APT  CLEAR     46  12  25 N/A        N/A
* ALZADA       N/A       39  23  53 NW6        N/A   WCI  35
* HYSHAM       N/A       41  13  32 N/A        N/A
* LAME DEER    N/A       40  18  41 N/A        N/A
* REED POINT   N/A       43  14  31 SE3        N/A
* ROSCOE HILL  N/A       38   9  30 SE5        N/A   WCI  34
$$

REGIONAL REPORTS...DAKOTAS
CITY           SKY/WX    TMP DP  RH WIND       PRES   REMARKS
WILLISTON      CLEAR     36  27  70 N9        30.19R WCI  29
DICKINSON      CLEAR     37  25  62 N9        30.13S WCI  30
CROSBY         CLOUDY    25  25 100 N14       30.22R WCI  13
WATFORD CITY   CLEAR     34  27  76 NW3       30.16R
BISMARCK       CLEAR     39  28  65 NW12      30.15R WCI  32
GRAND FORKS    CLEAR     27  21  78 NW7       30.11R WCI  19
FARGO          CLEAR     30  25  82 S8        30.12F WCI  22
BUFFALO SD     PTCLDY    39  25  57 N12       30.08S WCI  32
RAPID CITY     PTCLDY    39  25  57 N13       30.12S WCI  31
$$

REGIONAL REPORTS...WYOMING/IDAHO/WASHINGTON
CITY           SKY/WX    TMP DP  RH WIND       PRES   REMARKS
GILLETTE       PTCLDY    34  23  64 CALM      30.15S
SHERIDAN       PTCLDY    36  23  59 CALM      30.14S
CODY           CLOUDY    36  27  70 CALM      30.14S
YELLOWSTONE LA CLOUDY    12   7  80 CALM      30.14F
SALMON         CLOUDY    28  21  75 NE3       30.26S
MULLAN PASS    CLEAR     28  21  75 NW5       30.15S WCI  22
SAND POINT     CLOUDY    32  32 100 S7        30.28S WCI  25
SPOKANE        FOG       30  28  92 CALM      30.28R VSB 1/2

$$




USA.gov is the U.S. government's official web portal to all federal, state and local government web resources and services.